Weather reports worldwide

Advertisment
Baltasound, United Kingdom (3002): temperature & dewpoint: 18.06.2017 23:00:00 - 24.06.2017 23:00:00 (BST)Baltasound, United Kingdom (3002): temperature 5cm: 18.06.2017 23:00:00 - 24.06.2017 23:00:00 (BST)Baltasound, United Kingdom (3002): temperature -20cm: 18.06.2017 23:00:00 - 24.06.2017 23:00:00 (BST)Baltasound, United Kingdom (3002): wind speed & gusts: 18.06.2017 23:00:00 - 24.06.2017 23:00:00 (BST)Baltasound, United Kingdom (3002): wind direction: 18.06.2017 23:00:00 - 24.06.2017 23:00:00 (BST)Baltasound, United Kingdom (3002): reduced air pressure: 18.06.2017 23:00:00 - 24.06.2017 23:00:00 (BST)Baltasound, United Kingdom (3002): visibility: 18.06.2017 23:00:00 - 24.06.2017 23:00:00 (BST)Baltasound, United Kingdom (3002): precipitation: 18.06.2017 23:00:00 - 24.06.2017 23:00:00 (BST)
Date & Time tt [°C] td [°C] tt 5cm [°C] tt -20cm [°C] ff [km/h] ff [kn] fx [km/h] fx [kn] dd ppp [hPa] vv [km] rr [mm]
24.06.2017 23:00:00 9,9 9,0 - - 42 23 61 33 SW 983,9 3,5 1,4
24.06.2017 22:00:00 10,1 8,7 - - 37 20 57 31 WSW 984,8 15 0,2
24.06.2017 21:00:00 10,4 9,6 - - 35 19 52 28 SW 985,1 14 0,4
24.06.2017 20:00:00 10,2 9,3 - - 37 20 57 31 SW 986,1 9 2,4
24.06.2017 19:00:00 10,3 9,1 - - 41 22 59 32 SSW 987,1 6 0,8
24.06.2017 18:00:00 10,3 9,1 - - 44 24 67 36 SSW 988,2 11 0,6
24.06.2017 17:00:00 11,0 9,3 - - 46 25 63 34 SSW 989,0 12 0,2
24.06.2017 16:00:00 10,6 9,3 - - 42 23 61 33 SSW 990,2 3,2 0,2
24.06.2017 15:00:00 10,6 8,6 - - 42 23 57 31 SSW 991,1 15 0,2
24.06.2017 14:00:00 10,6 9,0 - - 41 22 59 32 SW 992,0 12 0,6
24.06.2017 13:00:00 10,2 8,3 - - 31 17 72 39 SW 992,4 12 0,4
24.06.2017 12:00:00 11,9 7,8 - - 41 22 59 32 SW 992,7 19 0,0
24.06.2017 11:00:00 12,1 7,5 - - 42 23 55 30 SW 993,2 16 0,0
24.06.2017 10:00:00 11,6 7,3 - 13,7 42 23 55 30 SW 993,6 15 0,0
24.06.2017 09:00:00 11,0 7,9 - - 34 18 52 28 SW 994,0 14 0,0
24.06.2017 08:00:00 11,2 8,0 - - 35 19 50 27 SW 994,4 17 0,0
24.06.2017 07:00:00 10,2 8,0 - - 29 16 52 28 SW 994,6 21 0,0
24.06.2017 06:00:00 10,0 8,6 - - 31 17 - - SSW 995,1 13 0,0
24.06.2017 05:00:00 9,4 7,9 - - 26 14 - - SSW 995,6 18 0,0
24.06.2017 04:00:00 8,7 7,1 - - 15 8 - - W 996,1 30 0,0
24.06.2017 03:00:00 8,2 6,8 - - 28 15 - - SSW 996,6 25 0,0
24.06.2017 02:00:00 9,0 7,4 - - 24 13 52 28 SW 996,9 24 0,6
24.06.2017 01:00:00 9,1 7,7 - - 28 15 57 31 SSW 997,4 9 1,0
24.06.2017 00:00:00 10,5 8,7 - - 35 19 54 29 SSW 997,8 2,9 0,2
23.06.2017 23:00:00 10,4 8,2 - - 28 15 - - SSW 998,2 9 0,0
23.06.2017 22:00:00 10,7 8,5 - - 29 16 48 26 SW 998,6 15 0,0
23.06.2017 21:00:00 11,4 8,0 - - 35 19 55 30 SW 998,7 14 0,0
23.06.2017 20:00:00 13,1 8,1 - - 42 23 61 33 WSW 998,5 16 0,0
23.06.2017 19:00:00 12,6 7,4 - - 42 23 57 31 WSW 998,4 14 0,0
23.06.2017 18:00:00 13,4 8,1 - - 39 21 55 30 WSW 998,5 13 0,0
23.06.2017 17:00:00 13,3 8,3 - - 37 20 63 34 WSW 998,3 23 0,0
23.06.2017 16:00:00 13,8 9,3 - - 44 24 61 33 W 997,9 17 0,0
23.06.2017 15:00:00 13,6 10,2 - - 46 25 61 33 W 997,3 16 0,0
23.06.2017 14:00:00 13,0 11,6 - - 37 20 57 31 WSW 996,5 11 0,2
23.06.2017 13:00:00 13,2 11,9 - - 41 22 59 32 SW 995,9 7 0,0
23.06.2017 12:00:00 13,7 12,7 - - 39 21 55 30 SW 995,5 22 0,0
23.06.2017 11:00:00 12,6 12,4 - - 35 19 50 27 S 995,8 18 0,0
23.06.2017 10:00:00 11,8 11,6 - 13,7 34 18 46 25 S 996,4 16 1,2
23.06.2017 09:00:00 11,7 11,4 - - 29 16 - - SSE 997,2 5 0,2
23.06.2017 08:00:00 11,5 11,2 - - 29 16 - - SSE 997,6 4,7 0,0
23.06.2017 07:00:00 11,5 11,2 - - 31 17 - - SSE 998,3 11 0,0
23.06.2017 06:00:00 11,1 10,7 - - 29 16 - - SSE 999,4 5 0,2
23.06.2017 05:00:00 10,8 10,1 - - 28 15 - - SSE 1000,5 8 0,2
23.06.2017 04:00:00 10,7 9,8 - - 26 14 - - S 1001,4 21 0,2
23.06.2017 03:00:00 10,9 10,0 - - 21 11 - - S 1002,5 14 0,6
23.06.2017 02:00:00 11,2 9,7 - - 18 10 - - S 1003,2 30 0,0
23.06.2017 01:00:00 11,0 9,5 - - 21 11 - - S 1003,9 24 0,0
23.06.2017 00:00:00 11,0 9,0 - - 18 10 - - S 1004,4 19 0,0
22.06.2017 23:00:00 10,6 7,4 - - 11 6 - - S 1004,6 35 0,0
22.06.2017 22:00:00 10,5 6,9 - - 11 6 - - S 1005,0 28 0,0
22.06.2017 21:00:00 11,9 6,4 - - 9 5 - - SSW 1005,4 28 0,0
22.06.2017 20:00:00 12,5 6,2 - - 13 7 - - WSW 1006,2 30 0,0
22.06.2017 19:00:00 12,5 6,2 - - 15 8 - - W 1006,2 30 0,0
22.06.2017 18:00:00 13,3 7,2 - - 15 8 - - W 1006,6 40 0,0
22.06.2017 17:00:00 13,3 7,1 - - 16 9 - - WNW 1006,7 18 0,0
22.06.2017 16:00:00 13,4 7,8 - - 18 10 - - WNW 1006,9 30 0,0
22.06.2017 15:00:00 13,1 9,1 - - 22 12 - - WNW 1006,9 16 0,0
22.06.2017 14:00:00 13,6 9,5 - - 22 12 - - WNW 1006,7 17 0,0
22.06.2017 13:00:00 13,8 9,9 - - 18 10 - - W 1006,5 30 0,0
22.06.2017 12:00:00 13,4 9,7 - - 18 10 - - W 1006,4 29 0,0
22.06.2017 11:00:00 13,8 10,5 - - 22 12 - - W 1006,3 45 0,0
22.06.2017 10:00:00 13,1 11,2 - 13,2 21 11 - - W 1006,1 26 0,0
22.06.2017 09:00:00 12,0 10,4 - - 26 14 - - W 1005,7 28 0,0
22.06.2017 08:00:00 11,2 10,8 - - 26 14 - - W 1005,5 23 0,0
22.06.2017 07:00:00 11,2 11,1 - - 24 13 - - W 1005,2 6 0,0
22.06.2017 06:00:00 11,4 11,3 - - 22 12 - - W 1004,9 6 0,0
22.06.2017 05:00:00 11,9 11,8 - - 22 12 - - W 1004,9 4,8 0,0
22.06.2017 04:00:00 12,3 12,3 - - 15 8 - - SW 1004,8 1,6 0,0
22.06.2017 03:00:00 11,8 11,8 - - 16 9 - - SSW 1004,9 3,1 0,0
22.06.2017 02:00:00 11,7 11,7 - - 16 9 - - S 1005,1 3,5 0,0
22.06.2017 01:00:00 11,5 11,4 - - 18 10 - - SSE 1005,9 0,4 0,0
22.06.2017 00:00:00 11,6 11,5 - - 31 17 - - SE 1006,0 3,4 0,0
21.06.2017 23:00:00 11,5 11,3 - - 28 15 - - SE 1007,1 1,8 2,6
21.06.2017 22:00:00 11,5 11,2 - - 34 18 - - SSE 1007,7 2,7 0,2
21.06.2017 21:00:00 11,5 10,9 - - 34 18 - - SE 1008,4 3,2 0,0
21.06.2017 20:00:00 11,9 10,5 - - 31 17 - - SE 1009,4 15 0,0
21.06.2017 19:00:00 12,2 10,4 - - 31 17 - - SE 1009,9 19 0,0
21.06.2017 18:00:00 12,2 10,1 - - 31 17 - - SE 1010,9 18 0,0
21.06.2017 17:00:00 11,9 9,9 - - 29 16 - - SE 1012,0 22 0,0
21.06.2017 16:00:00 11,6 9,7 - - 29 16 - - SE 1013,0 20 0,0
21.06.2017 15:00:00 12,0 9,4 - - 28 15 - - SE 1014,2 30 0,0
21.06.2017 14:00:00 12,8 9,5 - - 28 15 - - SE 1014,8 21 0,0
21.06.2017 13:00:00 12,8 9,4 - - 24 13 - - SE 1015,4 29 0,0
21.06.2017 12:00:00 13,0 9,5 - - 24 13 - - SSE 1016,0 35 0,0
21.06.2017 11:00:00 12,7 9,4 - - 22 12 - - SSE 1016,7 50 0,0
21.06.2017 10:00:00 12,7 9,0 13,3 13,2 18 10 - - SSE 1017,1 27 0,0
21.06.2017 09:00:00 12,7 9,9 - - 18 10 - - SSE 1017,5 28 0,0
21.06.2017 08:00:00 11,7 9,1 - - 13 7 - - S 1018,1 22 0,0
21.06.2017 07:00:00 11,0 9,0 - - 11 6 - - S 1018,2 40 0,0
21.06.2017 06:00:00 9,9 8,9 - - 13 7 - - SSW 1018,5 30 0,0
21.06.2017 05:00:00 9,6 8,8 - - 11 6 - - S 1018,8 30 0,0
21.06.2017 04:00:00 9,7 8,6 - - 8 4 - - SSW 1018,8 28 0,0
21.06.2017 03:00:00 10,1 8,9 - - 8 4 - - SSW 1019,4 30 0,0
21.06.2017 02:00:00 9,9 8,5 - - 8 4 - - S 1019,9 28 0,0
21.06.2017 01:00:00 9,9 8,2 - - 5 3 - - S 1020,1 30 0,0
21.06.2017 00:00:00 9,7 7,8 - - 4 2 - - S 1020,4 40 0,0
20.06.2017 23:00:00 10,0 7,7 - - 5 3 - - WSW 1020,4 45 0,0
20.06.2017 22:00:00 10,3 7,5 - - 5 3 - - WNW 1020,5 35 0,0
20.06.2017 21:00:00 10,7 7,4 - - 8 4 - - WNW 1020,6 40 0,0
20.06.2017 20:00:00 10,9 7,0 - - 13 7 - - NW 1020,5 40 0,0
20.06.2017 19:00:00 11,6 7,9 - - 15 8 - - NW 1020,3 40 0,0
20.06.2017 18:00:00 12,0 8,1 - - 16 9 - - NW 1020,1 30 0,0
20.06.2017 17:00:00 12,0 8,2 - - 21 11 - - NW 1019,9 35 0,0
20.06.2017 16:00:00 11,6 9,3 - - 16 9 - - NW 1019,9 28 0,0
20.06.2017 15:00:00 12,5 8,8 - - 26 14 - - WNW 1019,5 17 0,0
20.06.2017 14:00:00 12,4 8,5 - - 28 15 - - WNW 1019,1 22 0,0
20.06.2017 13:00:00 12,6 9,2 - - 26 14 - - WNW 1018,9 25 0,0
20.06.2017 12:00:00 11,9 8,4 - - 24 13 - - WNW 1018,6 28 0,0
20.06.2017 11:00:00 12,5 9,1 - - 29 16 - - WNW 1018,0 26 0,0
20.06.2017 10:00:00 12,1 8,8 12,8 13,2 31 17 - - WNW 1017,4 28 0,0
20.06.2017 09:00:00 11,4 8,7 - - 31 17 - - WNW 1017,0 30 0,0
20.06.2017 08:00:00 11,1 8,7 - - 34 18 - - W 1016,5 17 0,0
20.06.2017 07:00:00 10,8 8,8 - - 29 16 - - WNW 1016,1 23 0,0
20.06.2017 06:00:00 10,6 8,7 - - 34 18 46 25 W 1015,8 19 0,2
20.06.2017 05:00:00 10,2 8,6 - - 29 16 - - W 1015,7 26 0,8
20.06.2017 04:00:00 10,6 8,1 - - 24 13 - - W 1015,6 22 0,0
20.06.2017 03:00:00 10,1 8,2 - - 29 16 - - W 1015,7 19 0,0
20.06.2017 02:00:00 9,5 7,2 - - 34 18 48 26 W 1015,5 29 0,0
20.06.2017 01:00:00 10,0 7,7 - - 29 16 - - W 1015,5 20 0,0
20.06.2017 00:00:00 9,9 7,5 - - 28 15 46 25 W 1015,6 21 0,0
19.06.2017 23:00:00 9,8 7,7 - - 29 16 50 27 W 1015,4 28 0,2
19.06.2017 22:00:00 10,4 7,0 - - 34 18 50 27 W 1015,3 23 0,0
19.06.2017 21:00:00 10,7 7,4 - - 35 19 48 26 W 1015,2 27 0,0
19.06.2017 20:00:00 11,5 8,2 - - 29 16 - - W 1015,2 16 0,0
19.06.2017 19:00:00 12,0 8,4 - - 35 19 46 25 W 1014,9 21 0,0
19.06.2017 18:00:00 13,3 8,7 - - 35 19 - - W 1015,0 30 0,0
19.06.2017 17:00:00 13,5 8,8 - - 35 19 - - W 1015,1 27 0,0
19.06.2017 16:00:00 14,0 8,5 - - 34 18 46 25 W 1015,2 19 0,0
19.06.2017 15:00:00 13,4 9,4 - - 35 19 46 25 W 1015,5 28 0,0
19.06.2017 14:00:00 13,6 8,3 - - 34 18 - - W 1015,6 50 0,0
19.06.2017 13:00:00 13,5 10,1 - - 34 18 - - WSW 1015,9 23 0,0
19.06.2017 12:00:00 11,5 9,5 - - 29 16 - - WSW 1016,1 50 0,0
19.06.2017 11:00:00 10,8 9,6 - - 28 15 - - W 1016,4 27 0,4
19.06.2017 10:00:00 11,6 10,0 11,9 13,0 26 14 - - WSW 1016,4 18 0,0
19.06.2017 09:00:00 11,5 10,6 - - 24 13 - - SW 1016,5 8 0,2
19.06.2017 08:00:00 11,8 10,2 - - 26 14 - - SW 1016,8 23 0,0
19.06.2017 07:00:00 11,6 10,3 - - 18 10 - - SW 1016,9 15 0,0
19.06.2017 06:00:00 11,1 9,8 - - 16 9 - - SW 1017,1 16 0,0
19.06.2017 05:00:00 11,0 9,7 - - 22 12 - - WSW 1017,5 16 0,0
19.06.2017 04:00:00 10,9 9,8 - - 18 10 - - WSW 1017,7 7 0,0
19.06.2017 03:00:00 10,9 9,6 - - 21 11 - - SW 1018,0 13 0,0
19.06.2017 02:00:00 10,8 9,4 - - 22 12 - - WSW 1018,0 16 0,0
19.06.2017 01:00:00 10,9 9,6 - - 24 13 - - WSW 1017,8 16 0,0
19.06.2017 00:00:00 10,4 9,2 - - 24 13 50 27 WSW 1018,0 14 0,0
18.06.2017 23:00:00 11,0 9,4 - - 28 15 - - WSW 1017,8 17 0,2

tt = temperature
td = dewpoint
tt 5cm = temperature 5cm
tt -20cm = temperature -20cm
ff = wind speed
fx = gusts
dd = wind direction
ppp = reduced air pressure
vv = visibility
rr = precipitation

Next stations